Regional Weather Roundup
Issued by NWS

Home | Current Version | Previous Version | Graphics & Text | Print | Product List | Glossary On
Versions: 1 2 3 4 5 6 7 8 9 10 11 12 13 14 15 16 17 18 19 20 21 22 23 24 25 26 27 28 29 30 31 32 33 34 35 36 37 38 39 40 41 42 43 44 45 46 47 48 49 50
000
ASUS43 KTOP 301408
RWRKS

WEATHER ROUNDUP FOR KANSAS
NATIONAL WEATHER SERVICE GOODLAND KS
900 AM CDT FRI SEP 30 2016

NOTE:  "FAIR" INDICATES FEW OR NO CLOUDS BELOW 12,000 FEET WITH NO
SIGNIFICANT WEATHER AND/OR OBSTRUCTIONS TO VISIBILITY.

KSZ001>006-013>018-027>032-041>047-301500-
NORTHWEST KANSAS

CITY           SKY/WX    TMP DP  RH WIND       PRES   REMARKS
GOODLAND       CLOUDY    50  43  77 S17       30.21S
HAYS           SUNNY     50  41  71 SE3       30.28S
HILL CITY      CLOUDY    48  46  93 CALM      30.29R
$$

KSZ061>065-074>080-084>089-301500-
SOUTHWEST KANSAS

CITY           SKY/WX    TMP DP  RH WIND       PRES   REMARKS
DODGE CITY     SUNNY     53  47  79 SE12      30.27S
ELKHART          N/A     49  39  68 S13         N/A
GARDEN CITY    SUNNY     52  46  80 S10       30.24F
GREAT BEND     SUNNY     50  41  71 CALM      30.29S
LIBERAL        SUNNY     54  45  71 SE12      30.25S
PRATT          SUNNY     51  46  83 CALM      30.29S
$$

KSZ066>073-081>083-090>101-301500-
SOUTHEAST KANSAS

CITY           SKY/WX    TMP DP  RH WIND       PRES   REMARKS
CHANUTE        SUNNY     57  52  83 N6        30.24F
COFFEYVILLE    SUNNY     56  53  90 N5        30.25S
HUTCHINSON     SUNNY     54  51  90 CALM      30.30R
MEDICINE LODGE   N/A     51  48  89 CALM      30.28S
NEWTON         SUNNY     56  51  84 N5        30.29S
PARSONS        SUNNY     57  52  83 N6        30.25F
WICHITA INTL   SUNNY     57  52  83 NW3       30.28S
WICHITA JABRA  SUNNY     57  52  83 CALM      30.27S
WICHITA MCCONL SUNNY     56  50  80 N3        30.27S
WINFIELD       SUNNY     56  53  90 N3        30.28S
$$

KSZ007>012-019>026-033>040-048>060-102>105-301500-
NORTHEAST KANSAS

CITY           SKY/WX    TMP DP  RH WIND       PRES   REMARKS
CONCORDIA      SUNNY     52  49  89 CALM      30.29F
EMPORIA        SUNNY     54  51  90 NW5       30.27S
LAWRENCE       SUNNY     53  52  96 W6        30.26S
MANHATTAN      SUNNY     51  49  92 CALM      30.29R
MARYSVILLE     SUNNY     50  46  87 NW3       30.29S
OLATHE IND     SUNNY     54  51  90 N6        30.26R
OLATHE EXE     SUNNY     56  49  77 N5        30.24S
SALINA         SUNNY     52  48  86 N3        30.30S
TOPEKA BILLARD SUNNY     53  50  89 W3        30.27S
TOPEKA FORBES  SUNNY     56  51  84 N8        30.26S
$$




USA.gov is the U.S. government's official web portal to all federal, state and local government web resources and services.